STARLINK-34179, 64103

Orbit data source: Space-Track

STARLINK-34179, 64103 is a payload satellite owned by SpaceX/Seattle (US) in LEO that was launched on Fri, 23 May 2025 UTC via an FALCON 9 launch vehicle from the Air Force Western Test Range (AFWTR). Payload-class satellites include a variety of spacecraft equipped with specific instruments for various scientific and technological missions. These include communications satellites like Starlink; space stations such as the ISS; scientific satellites like the Hubble; Earth observation satellites from companies like Planet Labs, Umbra, and HawkEye 360; GPS; miniature CubeSats for education and research; and military/defense satellites.

Loading next visibility...
Identifier
64103, 2025-110H
Orbit
LEO
Country
Flag of USUS
Related business
Manufacturer
SpaceX/Seattle
Mission
Operational Commercial Communications
Bus & Motor
STARLINK V2MO, Unknown motor
Mass
575 kg wet, ~530 kg dry
Launch date (UTC)
2025-05-23 (1 year ago)
Launch vehicle
FALCON 9
Launch site
Air Force Western Test Range (AFWTR)
Object type
Payload
Rocket body
Debris
Shape & HBR
Box + 2 Pan, 17.7 m
Radar Cross Section
36.964 m², Large (>1 m²)

Expand to show TLE details & history
Last TLE update: 1 day ago

TLE from 1 day ago
0 STARLINK-34179
1 64103U 25110H   26170.55171102  .00016856  00000-0  57966-3 0  9993
2 64103  53.1599 273.9353 0001824  96.8641 263.2567 15.30216360 61475
Epoch: 2026-06-19T13:14Z
TLE epoch observation values (Epoch: 2026-06-19T13:14:27.832Z)
Latitude
-0.00003°
Longitude
167.54025°
Altitude
476.213 km
Speed
7.629 km/s
True Right ascension
18h 15m 44s
True Declination
0° 00' 00"
Sunlit
Object was in full shadow at epoch
Visualization orbit readout
Latitude
Unknown
Longitude
Unknown
Altitude
Unknown
Speed
Unknown
Apparent Right ascension
Unknown
Apparent Declination
Unknown
Sunlit
N/A
Visualization observer readout
Local Sidereal Time
08:32:47
Azimuth
Unknown
Elevation
Unknown
Doppler factor
Unknown
Orbital elements
Apogee altitude
476.673 km
Perigee altitude
474.173 km
Semi-major axis
6,853.56 km
Eccentricity
0.00018
Inclination
53.1599°
RAAN
273.9353°
Arg. of periapsis
96.8641°
True anomaly
263.23594°
Mean anomaly
263.2567°
Eccentric anomaly
263.24632°
Mean motion
3.82533 °/min
Orbital period
94.11 mins
BSTAR
0.00057966
Loading maneuver chart data...
Computing Atmospheric mass density...
Loading historical data...
Loading historical data...
Loading historical data...
Loading historical data...
Loading historical data...
Loading historical data...
Loading historical data...

Documentation

Showing up to 5 results
|